EW6500 Weather Reports


Display with metric or nautical units.
time (UTC)temp
F
wind
direction
speed
MPH
gust
MPH
rain 1hr
in
rain 24hr
in
rain mn
in
humidity
%
barometer
mb
20260506023034 60 87 3.0 11.0 0.00 0.00 0.00 72 1031.6
20260506021529 59 79 2.0 9.0 0.00 0.00 0.00 76 1031.7
20260506020027 57 69 1.0 5.0 0.00 0.00 0.00 83 1031.9
20260506014523 54 300 0.0 3.0 0.00 0.00 0.00 89 1032.0
20260506013021 52 298 1.0 4.0 0.00 0.00 0.00 94 1032.0
20260506011518 50 238 1.0 2.0 0.00 0.00 0.00 94 1032.1
20260506010029 49 238 0.0 2.0 0.00 0.00 0.00 95 1032.1
20260506004508 47 238 1.0 3.0 0.00 0.00 0.00 94 1031.9
20260506003008 47 238 0.0 0.0 0.00 0.00 0.00 94 1032.0
20260506001506 46 238 0.0 0.0 0.00 0.00 0.00 94 1031.9
20260506000005 45 238 0.0 0.0 0.00 0.00 0.00 94 1031.8
20260505234504 44 238 0.0 0.0 0.00 0.00 0.00 93 1031.7
20260505233008 44 238 0.0 0.0 0.00 0.00 0.00 93 1031.5
20260505231601 44 238 0.0 0.0 0.00 0.00 0.00 93 1031.3
20260505230100 44 238 0.0 1.0 0.00 0.00 0.00 93 1031.2
20260505224557 44 237 0.0 0.0 0.00 0.00 0.00 93 1031.0
20260505223056 43 237 0.0 1.0 0.00 0.00 0.00 92 1030.8
20260505221555 44 237 0.0 0.0 0.00 0.00 0.00 92 1030.7
20260505220051 44 237 0.0 0.0 0.00 0.00 0.00 92 1030.6
20260505214601 45 237 0.0 0.0 0.00 0.00 0.00 92 1030.5
20260505213047 45 237 0.0 1.0 0.00 0.00 0.00 92 1030.3
20260505211547 45 237 0.0 0.0 0.00 0.00 0.00 92 1030.1
20260505210044 45 237 0.0 0.0 0.00 0.00 0.00 92 1029.9
20260505204540 45 237 0.0 0.0 0.00 0.00 0.00 92 1029.8
20260505203040 46 237 0.0 0.0 0.00 0.00 0.00 91 1029.8
20260505201548 46 237 0.0 0.0 0.00 0.00 0.00 92 1029.7
20260505200035 46 237 0.0 0.0 0.00 0.00 0.00 91 1029.6
20260505194535 46 237 0.0 0.0 0.00 0.00 0.00 91 1029.5
20260505193032 47 237 0.0 0.0 0.00 0.00 0.00 92 1029.5
20260505191532 47 237 0.0 0.0 0.00 0.00 0.00 91 1029.5
20260505190038 47 237 0.0 0.0 0.00 0.00 0.00 91 1029.5
20260505184529 47 237 0.0 0.0 0.00 0.00 0.00 90 1029.6
20260505183031 47 237 0.0 0.0 0.00 0.00 0.00 90 1029.5
20260505181532 47 237 0.0 0.0 0.00 0.00 0.00 90 1029.5
20260505180024 48 237 0.0 0.0 0.00 0.00 0.00 90 1029.5
20260505174523 48 237 0.0 0.0 0.00 0.00 0.00 90 1029.5
20260505173034 48 237 0.0 0.0 0.00 0.00 0.00 90 1029.6
20260505171532 48 237 0.0 0.0 0.00 0.00 0.00 90 1029.6
20260505170020 48 237 0.0 0.0 0.00 0.00 0.00 89 1029.5
20260505164518 48 237 0.0 0.0 0.00 0.00 0.00 89 1029.4
20260505163016 48 237 0.0 0.0 0.00 0.00 0.00 88 1029.3
20260505161515 49 237 0.0 0.0 0.00 0.00 0.00 88 1029.3
20260505153013 50 237 0.0 0.0 0.00 0.00 0.00 85 1029.3
20260505151509 50 237 0.0 0.0 0.00 0.00 0.00 85 1029.2
20260505124503 54 76 0.0 2.0 0.00 0.00 0.00 79 1028.7
20260505123003 54 75 0.0 3.0 0.00 0.00 0.00 78 1028.4
20260505121502 55 76 1.0 2.0 0.00 0.00 0.00 78 1028.3
20260505120004 55 81 0.0 3.0 0.00 0.00 0.00 78 1028.2
20260505114503 56 88 0.0 2.0 0.00 0.00 0.00 77 1028.1
20260505113000 56 55 0.0 4.0 0.00 0.00 0.00 76 1027.9
20260505111600 57 97 0.0 3.0 0.00 0.00 0.00 76 1027.9
20260505101558 59 70 1.0 3.0 0.00 0.00 0.00 71 1027.3
20260505100058 60 211 0.0 2.0 0.00 0.00 0.00 68 1027.1
20260505094556 63 211 0.0 1.0 0.00 0.00 0.00 64 1027.1
20260505093057 65 211 0.0 1.0 0.00 0.00 0.00 61 1026.9
20260505091556 67 211 0.0 1.0 0.00 0.00 0.00 58 1026.7
20260505090054 68 211 0.0 2.0 0.00 0.00 0.00 57 1026.6
20260505084553 69 211 0.0 2.0 0.00 0.00 0.00 57 1026.4
20260505083052 70 204 0.0 2.0 0.00 0.00 0.00 55 1026.4
20260505081551 70 213 0.0 2.0 0.00 0.00 0.00 56 1026.3
20260505080049 69 224 1.0 3.0 0.00 0.00 0.00 57 1026.3
20260505074554 70 253 0.0 3.0 0.00 0.00 0.00 55 1026.2
20260505073101 71 252 0.0 3.0 0.00 0.00 0.00 55 1026.2
20260505071551 69 223 1.0 4.0 0.00 0.00 0.00 58 1026.2
20260505070043 68 198 1.0 3.0 0.00 0.00 0.00 59 1026.2
20260505064544 69 198 1.0 3.0 0.00 0.00 0.00 56 1026.2
20260505063039 70 184 0.0 5.0 0.00 0.00 0.00 59 1026.3
20260505061548 69 295 0.0 4.0 0.00 0.00 0.00 56 1026.2
20260505060036 69 67 1.0 3.0 0.00 0.00 0.00 57 1026.3
20260505054556 69 62 1.0 2.0 0.00 0.00 0.00 61 1026.3
20260505053033 68 165 0.0 3.0 0.00 0.00 0.00 62 1026.4
20260505051527 67 131 0.0 2.0 0.00 0.00 0.00 65 1026.5
20260505041519 66 117 1.0 3.0 0.00 0.00 0.00 67 1027.4
20260505040019 66 104 1.0 3.0 0.00 0.00 0.00 65 1027.6
20260505034515 65 209 0.0 3.0 0.00 0.00 0.00 70 1027.8
20260505033014 65 233 0.0 2.0 0.00 0.00 0.00 69 1027.9
20260505031529 64 143 0.0 3.0 0.00 0.00 0.00 73 1027.9
20260505030009 63 350 0.0 3.0 0.00 0.00 0.00 77 1028.0
20260505024506 60 355 1.0 3.0 0.00 0.00 0.00 82 1028.2